Regional Weather Roundup
Issued by NWS Sterling, VA

Home | Current Version | Previous Version | Graphics & Text | Print | Product List | Glossary On
Versions: 1 2 3 4 5 6 7 8 9 10 11 12 13 14 15 16 17 18 19 20 21 22 23 24 25 26 27 28
000
ASUS41 KLWX 181210
RWRLWX

REGIONAL WEATHER ROUNDUP
NATIONAL WEATHER SERVICE BALTIMORE MD/WASHINGTON DC
800 AM EDT FRI APR 18 2014

Note: "FAIR" indicates few or no clouds below 12,000 feet
with no significant weather and/or obstructions to visibility.
 TC=TEMPERATURE CELSIUS

 * =Non NWS site. Station does not report precipitation (e.g. rain,
    snow, etc.), thunder, or fog.

DCZ001-MDZ009-015-VAZ040>042-051-053>054-181300-
WASHINGTON METRO

CITY           SKY/WX    TMP DP  RH WIND       PRES   REMARKS
WASHINGTON NAT CLOUDY    41  31  67 E7        30.51S
DULLES         PTSUNNY   37  31  78 E3        30.50R
ANDREWS AFB    CLOUDY    39  31  73 E7        30.49S
FT BELVOIR     PTSUNNY   39  31  75 VRB1      30.51S
QUANTICO       CLOUDY    40  32  73 E9        30.51S
COLLEGE PARK*  CLOUDY    41  32  70 NE6       30.50F
LEESBURG*      MOSUNNY   37  36  93 NE3       30.51R
MANASSAS*      PTSUNNY   36  36 100 CALM      30.50S
GAITHERSBURG*  PTSUNNY   36  28  75 CALM      30.52R

$$

MDZ006>007-011-014-181300-
BALTIMORE METRO

CITY           SKY/WX    TMP DP  RH WIND       PRES   REMARKS
BWI AIRPORT    CLOUDY    39  30  70 NE6       30.50S
MD SCIENCE CTR   N/A     40  31  70 MISG      30.52S
MARTIN STATE   PTSUNNY   41  32  70 E3        30.53
ANNAPOLIS      CLOUDY    41  32  70 E5        30.51F
FORT MEADE*    CLOUDY    37  32  81 NE6       30.52F

$$

MDZ012-015-019>023-181300-
MARYLAND EASTERN SHORE

CITY           SKY/WX    TMP DP  RH WIND       PRES   REMARKS
OCEAN CITY     CLOUDY    43  34  70 NE12G18   30.49F
SALISBURY      CLOUDY    43  34  70 NE10      30.49F
CAMBRIDGE*     CLOUDY    43  32  65 NE6       30.49F
EASTON*        CLOUDY    41  36  81 E7        30.54F

$$

MDZ017>025-181300-
SOUTHERN MARYLAND

CITY           SKY/WX    TMP DP  RH WIND       PRES   REMARKS
PATUXENT RIVER CLOUDY    41  32  70 NE9       30.49S
ST INIGOES     CLOUDY    41  33  73 NE8       30.49S
LEONARDTOWN*   CLOUDY    41  32  70 NE6       30.50S

$$

MDZ003>005-181300-
NORTH CENTRAL MARYLAND

CITY           SKY/WX    TMP DP  RH WIND       PRES   REMARKS
FREDERICK*     SUNNY     34  34 100 CALM      30.54S
HAGERSTOWN APT MOSUNNY   36  28  73 NE3       30.48S
WESTMINSTER*   MOSUNNY   36  30  80 E5        30.48S

$$

MDZ501>502-181300-
WESTERN MARYLAND

CITY           SKY/WX    TMP DP  RH WIND       PRES   REMARKS
OAKLAND*       PTSUNNY   32  32 100 SE13      30.33S WCI  22
CUMBERLAND*    PTSUNNY   37  32  81 N3        30.49F

$$

VAZ025>031-181300-
SHENANDOAH VALLEY

CITY           SKY/WX    TMP DP  RH WIND       PRES   REMARKS
WINCHESTER*    PTSUNNY   36  32  87 NE3       30.46S
STAUNTON*      CLOUDY    35  32  90 CALM      30.45R

$$

WVZ021-048>050-054>055-181300-
EASTERN WEST VIRGINIA PANHANDLE

CITY           SKY/WX    TMP DP  RH WIND       PRES   REMARKS
MARTINSBURG    MOSUNNY   37  30  75 E3        30.48S
PETERSBURG*    CLOUDY    37  35  92 W5        30.44S

$$

VAZ036>039-050-181300-
CENTRAL FOOTHILLS

CITY           SKY/WX    TMP DP  RH WIND       PRES   REMARKS
CHARLOTTESVILL CLOUDY    39  34  82 CALM      30.47R
CULPEPER*      CLOUDY    39  37  93 CALM      30.50S

$$

VAZ055>057-181300-
NORTH AND CENTRAL PIEDMONT

CITY           SKY/WX    TMP DP  RH WIND       PRES   REMARKS
FREDERICKSBRG* MOSUNNY   39  36  87 NE3       30.50S
STAFFORD*      MOSUNNY   38  38 100 CALM      30.53S

$$

NCZ024-NYZ072-PAZ021-071-VAZ022-071-181300-
OTHER REGIONAL OBSERVATIONS

CITY           SKY/WX    TMP DP  RH WIND       PRES   REMARKS
NEW YORK CITY  PTSUNNY   37  27  67 N5        30.57R
PHILADELPHIA   CLOUDY    41  28  60 E7        30.55R
PITTSBURGH     CLOUDY    43  29  57 SE5       30.32S
ROANOKE        CLOUDY    40  34  79 E5        30.46S
RICHMOND       CLOUDY    39  33  79 NE7       30.50R
RALEIGH        PTSUNNY   41  36  82 NE6       30.44R

$$

ANZ530>537-181300-
MARINE OBSERVATIONS

STATION/POSITION TIME  TEMP    WIND        PRES
                       AIR SEA DIR/SP/G
                 (UTC) (F)     (DEG/KT/KT) (MB)
THOMAS PT LIGHT  1200   40 52   60/  8/ 10 1033.4F
BALT KEY BRIDGE  1200   40      40/  5/  6 1033.3F
COVE POINT       1200   40      60/ 10/ 12 1032.5F
LEWISETTA        1200   41 53   60/  6/ 10 1032.3S
SOLOMONS ISLAND  1200      52                N/A
PINEY POINT      1200           40/  5/  6   N/A

$$




USA.gov is the U.S. government's official web portal to all federal, state and local government web resources and services.